Regional Weather Roundup
Issued by NWS

Home | Current Version | Previous Version | Graphics & Text | Print | Product List | Glossary On
Versions: 1 2 3 4 5 6 7 8 9 10 11 12 13 14 15 16 17 18 19 20 21 22 23 24 25 26 27 28 29 30 31 32 33 34 35 36 37 38 39 40 41 42 43 44 45 46 47 48 49 50
505
ASUS45 KSLC 210810
RWRUT

UTAH REGIONAL WEATHER ROUNDUP
NATIONAL WEATHER SERVICE SALT LAKE CITY UT
200 AM MDT SAT OCT 21 2017

UTZ001>011-023>025-210900-

NORTHERN UTAH

CITY           SKY/WX    TMP DP  RH WIND       PRES   REMARKS
BRIGHAM CITY   CLEAR     35  24  64 NE3       30.06R
HILL AFB       MOCLDY    38  24  57 CALM      30.05R
LOGAN          CLOUDY    40  27  59 W5        30.04R
OGDEN          MOCLDY    37  28  70 CALM      30.04R
SALT LAKE CITY MOCLDY    41  30  65 SW5       30.05R
TOOELE VALLEY  CLEAR     30  23  74 S7        30.07R WCI  23
WENDOVER       PTCLDY    40  22  48 E6        30.07R
WEST JORDAN    PTCLDY    36  28  72 NW6       30.06R WCI  31

$$

UTZ011>015-024>027-210900-

CENTRAL/NORTHEAST UTAH

CITY           SKY/WX    TMP DP  RH WIND       PRES   REMARKS
PROVO AIRPORT  CLEAR     39  28  64 NW8       30.05R WCI  33
MOAB/CANYONLAN CLEAR     46  15  28 W17       29.96R
DELTA          CLEAR     32  18  55 SW3       30.06R
PRICE          PTCLDY    37  18  46 NW9       30.01R WCI  30
ROOSEVELT      CLEAR     36  16  44 W13       30.00R WCI  27
VERNAL         CLEAR     34  17  50 NE5       29.97R WCI  30

$$

UTZ013>016-019>022-027-210900-

SOUTHERN UTAH

CITY           SKY/WX    TMP DP  RH WIND       PRES   REMARKS
BRYCE CANYON   PTCLDY    29  18  63 NW12      30.03R WCI  19
CEDAR CITY     PTCLDY    30  18  60 CALM      30.04R
MILFORD        PTCLDY    36  17  46 NW12      30.05R WCI  28
ST GEORGE      MOSUNNY   56  17  21 E8        29.95R
HANKSVILLE     CLEAR     45  16  31 NW8       30.01R
BLANDING         N/A     46  19  34 NW13G21   30.00R

$$

REGIONAL REPORTS     COLORADO/ARIZONA

CITY           SKY/WX    TMP DP  RH WIND       PRES   REMARKS
CRAIG, CO      CLOUDY    32  29  88 W3        29.98R
GRAND JUNCTION PTCLDY    43  17  35 NW7       29.94R
RIFLE, CO      CLOUDY    41  31  67 NW10      29.97R
MONTROSE, CO   CLOUDY    47  20  34 NW18      29.95R
CORTEZ, CO     CLOUDY    49  28  44 NW9       29.92R
COLORADO CITY    N/A     50  18  27 NW5       29.99R
PAGE, AZ       CLEAR     53  23  31 NW8       29.93R
GRAND CANYON   CLEAR     43  33  68 SW7       29.99R
KINGMAN, AZ    CLEAR     50  31  48 CALM      29.91R
FLAGSTAFF, AZ  CLEAR     41  36  82 CALM      30.02R

$$

REGIONAL REPORTS    NEVADA/IDAHO/WYOMING

CITY           SKY/WX    TMP DP  RH WIND       PRES   REMARKS
LAS VEGAS, NV  CLEAR     65   7  10 NE13      29.92R
ELY, NY        MOCLDY    19   8  62 S8        30.10R WCI   9
ELKO, NV       MOCLDY    28  19  69 CALM      30.09R
POCATELLO, ID  CLEAR     36  29  75 SW16      30.01R WCI  26
BURLEY, ID     MOCLDY    37  30  75 SW10      30.04R WCI  30
FORT BRIDGER,    N/A     27  21  77 SW15      30.02R WCI  16
EVANSTON, WY   CLEAR     26  20  77 SW9       30.01R WCI  17
ROCK SPRINGS,  CLEAR     29  19  66 W24       29.95R WCI  15

$$




USA.gov is the U.S. government's official web portal to all federal, state and local government web resources and services.